• Join FlightAware (Why Join?)
  • Login
  • US Flag GB Flag 
10:27 EST


 

Airport Tracker/Info


-or-


 

Live Flight TrackerFlight Track Log ✈ GJS6221 ✈ 13-Oct-2013 ✈ KLGA - KSAV

Flight Track Log - Related Links

Times and Time Zones

All times are in EDT time to prevent confusion due to time zone crossing. See the GJS6221 flight status page for this flight to view local times or setup timezone preferences in your user account.

Time Position Orientation Groundspeed Altitude Reporting Facility
EDT Latitude Longitude Course Direction KTS MPH feet Rate Location/Type
16:35 40.7667 -73.8333 159° South 153 176 1,300  Level New York TRACON
16:36 40.7333 -73.8167 159° South 198 228 3,400 2,100 Climbing New York TRACON
16:37 40.7833 -73.7667 37° Northeast 264 304 5,300 2,280 Climbing New York TRACON
16:38 40.8000 -73.8500 285° West 290 334 8,000 2,760 Climbing New York TRACON
16:39 40.7500 -73.9333 232° Southwest 291 335 10,900 1,980 Climbing New York TRACON
16:40 40.6833 -74.0167 223° Southwest 347 399 12,000 780 Climbing New York TRACON
16:41 40.6000 -74.1167 222° Southwest 395 455 12,500 1,500 Climbing New York TRACON
16:43 40.3708 -74.1736 191° South 408 470 17,100 1,740 Climbing New York Center
16:44 40.2703 -74.1958 190° South 408 470 18,400 1,680 Climbing New York Center
16:45 40.1506 -74.2225 190° South 408 470 20,500 1,560 Climbing New York Center
16:48 39.9114 -74.3717 206° Southwest 411 473 23,900 1,260 Climbing Washington Center
16:49 39.8231 -74.4811 224° Southwest 427 491 25,000 1,080 Climbing Washington Center
16:50 39.7322 -74.5878 222° Southwest 438 504 26,100 1,080 Climbing Washington Center
16:51 39.6394 -74.6997 223° Southwest 448 516 27,200 1,080 Climbing Washington Center
16:52 39.5483 -74.8139 224° Southwest 453 521 28,300 1,080 Climbing Washington Center
16:53 39.4553 -74.9250 223° Southwest 453 521 29,400 1,020 Climbing Washington Center
16:54 39.3622 -75.0386 223° Southwest 453 521 30,400 960 Climbing Washington Center
16:55 39.2625 -75.1358 217° Southwest 458 527 31,400 900 Climbing Washington Center
16:56 39.1525 -75.2194 211° Southwest 458 527 32,300 900 Climbing Washington Center
16:57 39.0442 -75.3031 211° Southwest 463 533 33,300 900 Climbing Washington Center
16:58 38.9361 -75.3861 211° Southwest 458 527 34,200 900 Climbing Washington Center
16:59 38.8297 -75.4744 213° Southwest 458 527 35,200 900 Climbing Washington Center
17:00 38.7236 -75.5492 209° Southwest 453 521 36,000 360 Climbing Washington Center
17:01 38.6131 -75.6314 210° Southwest 453 521 36,000  Level Washington Center
17:02 38.5006 -75.7136 210° Southwest 458 527 36,000 540 Level Washington Center
17:03 38.3919 -75.7958 211° Southwest 464 534 37,100 960 Climbing Washington Center
17:04 38.2811 -75.8747 209° Southwest 464 534 38,000 420 Climbing Washington Center
17:05 38.1747 -75.9508 209° Southwest 464 534 38,000  Level Washington Center
17:06 38.0681 -76.0350 212° Southwest 459 528 38,000  Level Washington Center
17:07 37.9594 -76.1133 210° Southwest 459 528 38,000  Level Washington Center
17:08 37.8525 -76.1914 210° Southwest 459 528 38,000  Level Washington Center
17:09 37.7436 -76.2694 210° Southwest 454 522 38,000  Level Washington Center
17:10 37.6369 -76.3497 211° Southwest 454 522 38,000  Level Washington Center
17:11 37.5300 -76.4272 210° Southwest 454 522 38,000  Level Washington Center
17:12 37.4189 -76.5069 210° Southwest 454 522 38,000  Level Washington Center
17:13 37.3119 -76.5814 209° Southwest 449 517 38,000  Level Washington Center
17:14 37.2006 -76.6608 210° Southwest 449 517 38,000  Level Washington Center
17:15 37.0914 -76.7428 211° Southwest 454 522 38,000  Level Washington Center
17:16 36.9822 -76.8192 209° Southwest 454 522 38,000  Level Washington Center
17:17 36.8731 -76.8953 209° Southwest 454 522 38,000  Level Washington Center
17:18 36.7636 -76.9739 210° Southwest 454 522 38,000  Level Washington Center
17:19 36.6603 -77.0653 215° Southwest 454 522 38,000  Level Washington Center
17:20 36.5589 -77.1564 216° Southwest 454 522 38,000  Level Washington Center
17:21 36.4597 -77.2525 218° Southwest 459 528 38,000  Level Washington Center
17:22 36.3581 -77.3483 217° Southwest 464 534 38,000  Level Washington Center
17:23 36.2586 -77.4439 218° Southwest 464 534 38,000  Level Washington Center
17:24 36.1611 -77.5344 217° Southwest 457 526 38,000  Level Washington Center
17:25 36.0617 -77.6269 217° Southwest 457 526 38,000  Level Washington Center
17:26 35.9597 -77.7192 216° Southwest 457 526 38,000  Level Washington Center
17:27 35.8539 -77.8011 212° Southwest 457 526 38,000  Level Washington Center
17:28 35.7481 -77.8825 212° Southwest 457 526 38,000  Level Washington Center
17:29 35.6422 -77.9664 213° Southwest 457 526 38,000  Level Washington Center
17:30 35.5342 -78.0475 211° Southwest 457 526 38,000  Level Washington Center
17:31 35.4258 -78.1333 213° Southwest 462 532 38,000  Level Washington Center
17:32 35.3178 -78.2139 211° Southwest 462 532 38,000  Level Washington Center
17:33 35.2117 -78.2994 213° Southwest 462 532 38,000  Level Washington Center
17:34 35.1031 -78.3847 213° Southwest 462 532 38,000  Level Washington Center
17:35 34.9947 -78.4672 212° Southwest 462 532 38,000  Level Washington Center
17:36 34.8864 -78.5494 212° Southwest 462 532 38,000  Level Washington Center
17:39 34.5422 -78.8119 212° Southwest 468 539 38,000 -60 Level Jacksonville Center
17:40 34.4286 -78.9053 214° Southwest 456 525 37,900  Descending Jacksonville Center
17:41 34.3183 -78.9883 212° Southwest 461 531 38,000  Climbing Jacksonville Center
17:42 34.2147 -79.0758 215° Southwest 461 531 38,000  Level Jacksonville Center
17:43 34.1217 -79.1750 221° Southwest 461 531 38,000  Level Jacksonville Center
17:44 34.0244 -79.2744 220° Southwest 461 531 38,000  Level Jacksonville Center
17:45 33.9292 -79.3736 221° Southwest 461 531 38,000  Level Jacksonville Center
17:46 33.8500 -79.4542 220° Southwest 449 517 38,000  Level Jacksonville Center
17:47 33.7525 -79.5556 221° Southwest 450 518 38,000 -120 Level Jacksonville Center
17:48 33.6550 -79.6564 221° Southwest 456 525 37,800 -1,080 Descending Jacksonville Center
17:49 33.5575 -79.7572 221° Southwest 456 525 35,900 -1,980 Descending Jacksonville Center
17:50 33.4639 -79.8575 222° Southwest 461 531 33,900 -2,160 Descending Jacksonville Center
17:51 33.3661 -79.9556 220° Southwest 461 531 31,600 -2,340 Descending Jacksonville Center
17:52 33.2703 -80.0556 221° Southwest 461 531 29,300 -2,400 Descending Jacksonville Center
17:53 33.1642 -80.1606 220° Southwest 456 525 26,900 -2,700 Descending Jacksonville Center
17:54 33.0700 -80.2575 221° Southwest 461 531 24,000 -2,340 Descending Jacksonville Center
17:55 32.9742 -80.3569 221° Southwest 461 531 22,300 -2,100 Descending Jacksonville Center
17:56 32.8839 -80.4486 220° Southwest 455 524 19,800 -2,460 Descending Jacksonville Center
17:57 32.7939 -80.5375 220° Southwest 443 510 17,400 -2,400 Descending Jacksonville Center
17:58 32.7119 -80.6186 220° Southwest 420 483 15,000 -2,340 Descending Jacksonville Center
17:59 32.6361 -80.6969 221° Southwest 373 429 12,800 -1,800 Descending Jacksonville Center
18:00 32.5642 -80.7678 220° Southwest 342 394 11,500 -1,500 Descending Jacksonville Center
18:01 32.5047 -80.8308 222° Southwest 312 359 9,900 -1,620 Descending Jacksonville Center
18:02 32.4578 -80.9081 234° Southwest 292 336 8,300 -1,440 Descending Jacksonville Center
18:03 32.4150 -80.9731 232° Southwest 279 321 7,100 -1,200 Descending Jacksonville Center
18:04 32.3700 -81.0403 232° Southwest 254 292 6,000 -1,200 Descending Jacksonville Center
18:05 32.3292 -81.1003 231° Southwest 246 283 4,800 -960 Descending Jacksonville Center
18:06 32.2861 -81.1600 230° Southwest 246 283 4,100 -360 Descending Jacksonville Center
18:07 32.2494 -81.2147 232° Southwest 246 283 4,100 -540 Level Jacksonville Center
18:08 32.2083 -81.2769 232° Southwest 246 283 3,100 -1,020 Descending Jacksonville Center
18:09 32.1525 -81.3075 205° Southwest 236 272 2,100 -1,080 Descending Jacksonville Center
18:10 32.1269 -81.2758 134° Southeast 149 171 1,000 -960 Descending Jacksonville Center
18:11 32.1264 -81.2317 91° East 108 124 200 -420 Descending Jacksonville Center
18:12 32.1136 -81.2075 122° Southeast 108 124 200  Level Jacksonville Center
18:14 32.1167 -81.2000 90° East  Level FlightAware Approximate